sat.trackr.live / text

‹ back to catalog

STARLINK-2681

NORAD 48465 · 2021-040AP

PAYLOAD ACTIVE UNKNOWN

§ Identity

Operator
Country
US
Launch date
2021-05-09
Launch site
AFETR
Launch vehicle
Mass (kg)
RCS (m²)

Purposes: comms

External: N2YO · Heavens-Above · Gunter

§ Orbital elements

Epoch: 2026-05-24T20:12:00.223200Z

Period
92.72 min
Inclination
53.1399°
Eccentricity
0.0002690
Mean motion
15.53040326 rev/d
Perigee alt
406.0 km
Apogee alt
409.7 km
Semi-major
6,786.0 km
B*
4.6996e-4
RAAN
188.9268°
Arg perigee
17.0824°
Mean anomaly
343.0276°
Rev number
27,828

§ Raw data

STARLINK-26811 48465U 21040AP  26144.84166925  .00029505  00000+0  46996-3 0  99992 48465  53.1399 188.9268 0002690  17.0824 343.0276 15.53040326278281

JSON: /api/v1/satellites/48465 · /tle

For live sub-satellite position, see the globe view (requires WebGL).

§ Visibility from observer

Set your observer location to see the next 7 days of passes ≥ 10°. The values pass through the URL so the page stays shareable.

No JS? Fill the form by hand. The geolocation button needs JavaScript.